Estació municipal de El Brull (Osona, P.N. del Montseny)

Consulta les dades en temps real de l'estació municipal de El Brull





Hora UTC 09:10
Temperatura 30.4 ºC
Humitat 43.6 %
Pressió 1024.1 hPa
Pluja 0.0 mm
Velocitat vent 8.0 km/h
Direcció vent S
Radiació solar 611.2 W/m²

Webcam

Dades diàries 2026-09-04



Hora UTC (hivern +1h; estiu +2h)
Temperatura (ºC) Humitat (%) Pressió (hPa) Velocitat vent (km/h) Precipitació (mm) Radiació solar (W/m²)
Hora UTC Aire Humitat Pressió Vel. Dir. Vel. Max Dir. Intent. màx 5 min. Rad. Sol.
00:10 22.2 70.3 1025.1 2.5 ESE 4.2 SE 0.0 0.0
00:30 22.4 68.3 1025.0 2.0 ESE 4.1 SE 0.0 0.0
00:50 22.4 67.4 1024.8 1.4 ESE 3.1 E 0.0 0.0
01:00 22.4 67.4 1024.8 1.0 ESE 2.8 SE 0.0 0.0
01:10 22.3 67.9 1024.7 0.9 SSE 2.2 SSE 0.0 0.0
01:20 22.1 68.6 1024.6 1.9 ESE 3.5 ESE 0.0 0.0
01:30 21.9 69.5 1024.5 2.6 SE 4.9 SE 0.0 0.0
01:40 21.7 70.3 1024.5 2.5 SE 4.4 ESE 0.0 0.0
01:50 21.8 69.9 1024.4 1.8 ESE 4.2 ESE 0.0 0.0
02:00 21.9 69.6 1024.3 0.3 SE 2.2 SE 0.0 0.0
02:10 22.0 71.2 1024.3 2.9 WNW 5.6 NNW 0.0 0.0
02:20 21.5 73.4 1024.2 2.1 N 5.1 N 0.0 0.0
02:30 21.3 74.2 1024.2 2.0 NNW 3.8 N 0.0 0.0
02:40 21.5 74.2 1024.2 0.6 N 2.4 WNW 0.0 0.0
02:50 21.4 74.3 1024.2 1.2 ESE 3.1 ESE 0.0 0.0
03:10 21.4 71.1 1024.1 1.1 ESE 2.5 SE 0.0 0.0
03:20 22.0 67.0 1024.0 0.5 E 2.1 E 0.0 0.0
03:30 21.9 71.7 1024.0 0.5 NNE 3.5 N 0.0 0.0
03:40 21.8 71.8 1023.9 1.5 NNE 4.1 N 0.0 0.0
03:50 21.8 70.3 1023.9 2.2 ENE 6.1 NNE 0.0 0.0
04:00 22.0 58.7 1023.7 2.6 SE 6.9 SE 0.0 0.0
04:10 22.3 56.6 1023.7 4.2 SE 8.5 ESE 0.0 0.0
04:20 22.2 64.8 1023.7 2.4 N 5.9 N 0.0 0.0
04:30 21.4 74.0 1023.7 3.2 NNE 6.1 N 0.0 0.0
04:40 21.6 65.7 1023.7 1.9 ESE 3.9 SE 0.0 0.0
04:50 22.1 61.7 1023.6 1.1 SE 2.7 ESE 0.0 0.0
05:00 22.2 64.5 1023.6 0.5 SSE 3.9 S 0.0 0.1
05:10 22.2 64.0 1023.6 3.9 ESE 7.5 SE 0.0 0.7
05:20 22.8 63.0 1023.5 2.6 ESE 7.4 ESE 0.0 2.7
05:30 22.9 62.6 1023.5 2.0 ESE 4.9 SSE 0.0 5.9
05:40 22.9 62.8 1023.5 2.3 SE 5.4 ESE 0.0 9.8
05:50 23.0 62.8 1023.5 2.5 ESE 5.5 ESE 0.0 13.4
06:00 22.9 62.8 1023.5 2.1 SE 5.8 SSE 0.0 17.0
06:10 22.9 63.0 1023.6 3.7 SE 7.1 SE 0.0 22.3
06:20 23.2 62.2 1023.7 4.3 SE 7.9 ESE 0.0 27.9
06:30 23.7 61.2 1023.7 4.0 SE 7.9 SE 0.0 35.2
06:40 24.3 60.3 1023.7 4.3 SE 8.1 SE 0.0 135.7
06:50 25.2 58.1 1023.7 3.4 SE 6.6 SE 0.0 200.1
07:00 26.5 51.6 1023.7 2.0 ESE 6.6 SSW 0.0 231.2
07:10 27.4 48.9 1023.7 2.2 S 5.8 SSE 0.0 262.8
07:20 28.0 47.1 1023.6 4.1 SSE 8.3 SSE 0.0 294.2
07:30 28.2 46.7 1023.7 3.0 S 7.6 SSE 0.0 326.1
07:40 28.7 45.8 1023.7 4.1 SSE 8.3 SSE 0.0 357.2
07:50 28.7 45.6 1023.7 4.9 S 9.4 SSW 0.0 387.8
08:00 28.8 45.5 1023.7 5.6 S 9.6 S 0.0 418.1
08:10 29.1 45.6 1023.7 6.8 S 11.4 SSW 0.0 448.3
08:20 29.3 45.3 1023.7 6.9 S 12.2 S 0.0 477.9
08:30 29.6 45.1 1023.7 6.7 S 12.6 SSW 0.0 506.8
08:40 29.8 44.2 1023.9 7.5 SSW 13.8 S 0.0 535.0
08:50 30.2 44.4 1023.9 7.4 S 13.1 SSW 0.0 561.4
09:00 30.2 43.8 1024.0 8.1 S 13.9 S 0.0 586.6
09:10 30.4 43.6 1024.1 8.0 S 14.5 S 0.0 611.2
Màxima 30.4 74.3 1025.1 8.1 S 14.5 S 0.0 611.2
Mínima 20 43.6 1023.5
Total 0.0